Погода в Бильбейсе

Египет     30°25′23″N   31°34′02″E
темп.,
°C
ветер,
м/с
пор.,
м/с
влажн.,
%
обл.,
%
осадки,
мм/ч
давл.,
гПа
погр.,
м
20 января, ср
ср2023:00+9з348961 0.0 102268
02:00+8з469245 0.1 1021142
05:00+7з469229 0.0 1023123
08:00+9з498016 0.1 1024337
11:00+15сз811440 0.1 10261833
14:00+17ссз910337 0.1 10242326
17:00+13ссз59470 0.0 1026620
20:00+8сз34710 0.0 102745
21 января, чт
чт2123:00+6зсз22820 0.0 102922
02:00+5зсз22800 0.0 102822
05:00+5зсз22820 0.0 102922
08:00+8сз11680 0.0 102935
11:00+16св23400 0.0 10301263
14:00+19св44280 0.0 10281695
17:00+15св69400 0.0 1028382
20:00+9св47650 0.0 1028122
22 января, пт
пт2223:00+8св34760 0.0 102849
02:00+7ссв33820 0.0 102731
05:00+7св34850 0.0 102640
08:00+9св23710 0.0 1027111
11:00+18св67420 0.0 10261212
14:00+20св67356 0.0 10231503
17:00+15св59520 0.0 1022395
20:00+10ссв467731 0.0 1024112
23 января, сб
сб2323:00+9ссв348375 0.0 102350
02:00+7с238663 0.0 102123
05:00+6ссз23860 0.0 102125
08:00+10ссз12700 0.0 102275
11:00+19св44340 0.0 1021957
14:00+22св44210 0.0 10191662
17:00+18св58330 0.0 1019259
20:00+11св34640 0.0 102065
24 января, вс
вс2423:00+8св23650 0.0 102022
02:00+7ссв22650 0.0 101922
05:00+6сз23735 0.0 101922
08:00+9сз11685 0.0 102037
11:00+18ссв23390 0.0 1020844
14:00+22с23245 0.0 10191500
17:00+19св69393 0.0 1018373
20:00+11ссв346729 0.0 101975